{"data":{"norad_id":58090,"epoch":"2026-09-20T14:38:21.000192Z","epoch_age_seconds":130934,"freshness":"FRESH","line1":"1 58090U 23160R   26263.60996528  .00001045  00000+0  47514-4 0  9992","line2":"2 58090  43.0026  60.6999 0001176 276.6841  83.3877 15.27575966162713","mean_motion":15.27575966,"eccentricity":0.0001176,"inclination_deg":43.0026,"raan_deg":60.6999,"arg_perigee_deg":276.6841,"mean_anomaly_deg":83.3877,"bstar":4.7514e-5,"rev_number":16271,"period_min":94.266997651886,"perigee_km":482.25429840804,"apogee_km":483.86805221888,"semimajor_km":6861.1981753135,"source":"CELESTRAK","updated_at":"2026-09-21T09:00:33.784409Z"}}